Location: Gro� Glienicke
(52.4675°N, 13.1079°E)
Time: 08:41:57
(UTC+00:00)

GEOS 3 Rocket - Pass Details

Date: 06 July 2020
Orbit: 771 x 848 km, 115.0° (Epoch: 04 August)

Event Time Altitude Azimuth Distance (km) Brightness Sun altitude
Rises 20:30:19 0° 45° (NE) 3,410 7.0 -7.1°
Reaches altitude 10° 20:32:41 10° 49° (NE) 2,476 6.2 -7.3°
Maximum altitude 20:38:01 57° 128° (SE) 992 3.8 -7.8°
Drops below altitude 10° 20:43:19 10° 207° (SSW) 2,465 5.9 -8.2°
Sets 20:45:40 0° 212° (SSW) 3,393 6.6 -8.4°
